TimeEDT,TemperatureF,Dew PointF,Humidity,Sea Level PressureIn,VisibilityMPH,Wind Direction,Wind SpeedMPH,Gust SpeedMPH,PrecipitationIn,Events,Conditions,WindDirDegrees,DateUTC
12:51 AM,59.9,59.0,97,30.62,10.0,Calm,Calm,-,N/A,,Clear,0,2013-06-18 04:51:00
1:51 AM,59.0,57.9,96,30.62,10.0,Calm,Calm,-,N/A,,Clear,0,2013-06-18 05:51:00
2:51 AM,59.0,57.9,96,30.62,10.0,Calm,Calm,-,N/A,,Clear,0,2013-06-18 06:51:00
3:51 AM,57.9,55.9,93,30.62,10.0,Calm,Calm,-,N/A,,Clear,0,2013-06-18 07:51:00
4:51 AM,56.8,54.9,93,30.63,10.0,Calm,Calm,-,N/A,,Clear,0,2013-06-18 08:51:00
5:51 AM,56.8,55.9,97,30.65,10.0,Calm,Calm,-,N/A,,Clear,0,2013-06-18 09:51:00
6:51 AM,59.9,56.8,90,30.66,10.0,Calm,Calm,-,N/A,,Clear,0,2013-06-18 10:51:00
7:51 AM,63.9,57.9,81,30.66,10.0,Calm,Calm,-,N/A,,Clear,0,2013-06-18 11:51:00
8:51 AM,65.8,56.8,73,30.68,10.0,Calm,Calm,-,N/A,,Clear,0,2013-06-18 12:51:00
9:51 AM,68.0,56.8,67,30.68,10.0,Calm,Calm,-,N/A,,Scattered Clouds,0,2013-06-18 13:51:00
10:51 AM,68.9,57.9,68,30.67,10.0,Calm,Calm,-,N/A,,Scattered Clouds,0,2013-06-18 14:51:00
11:51 AM,68.9,57.9,68,30.67,10.0,North,5.8,-,N/A,,Mostly Cloudy,10,2013-06-18 15:51:00
12:27 PM,66.2,60.8,83,29.95,1.8,North,8.1,-,0.04,Rain,Light Rain,10,2013-06-18 16:27:00
12:35 PM,64.4,60.8,88,29.96,1.0,North,6.9,-,0.13,Rain,Rain,360,2013-06-18 16:35:00
12:42 PM,64.4,60.8,88,29.96,1.2,North,6.9,-,0.19,Rain,Heavy Rain,360,2013-06-18 16:42:00
12:51 PM,63.9,61.0,90,30.69,1.5,North,4.6,-,0.21,Rain,Rain,360,2013-06-18 16:51:00
1:29 PM,62.6,57.2,82,29.96,3.0,North,4.6,-,0.07,Rain,Rain,10,2013-06-18 17:29:00
1:51 PM,61.9,57.9,87,30.70,5.0,North,3.5,-,0.08,Rain,Light Rain,360,2013-06-18 17:51:00
2:51 PM,63.0,59.9,90,30.67,6.0,North,6.9,-,0.10,Rain,Light Rain,360,2013-06-18 18:51:00
3:51 PM,63.9,57.9,81,30.67,10.0,Calm,Calm,-,0.00,,Mostly Cloudy,0,2013-06-18 19:51:00
4:51 PM,63.0,57.9,84,30.68,10.0,Calm,Calm,-,0.00,Rain,Light Rain,0,2013-06-18 20:51:00
5:51 PM,61.9,54.9,78,30.68,10.0,Calm,Calm,-,0.00,,Mostly Cloudy,0,2013-06-18 21:51:00
6:51 PM,61.9,56.8,84,30.68,10.0,Calm,Calm,-,0.00,,Mostly Cloudy,0,2013-06-18 22:51:00
7:44 PM,60.8,55.4,82,29.94,7.0,North,4.6,-,N/A,,Overcast,350,2013-06-18 23:44:00
7:51 PM,61.0,54.9,80,30.67,6.0,NNW,6.9,-,N/A,,Haze,330,2013-06-18 23:51:00
8:51 PM,59.9,55.9,87,30.66,10.0,Calm,Calm,-,N/A,,Partly Cloudy,0,2013-06-19 00:51:00
9:51 PM,59.0,55.9,90,30.68,10.0,Calm,Calm,-,N/A,,Mostly Cloudy,0,2013-06-19 01:51:00
10:51 PM,59.0,55.9,90,30.67,10.0,Calm,Calm,-,N/A,,Overcast,0,2013-06-19 02:51:00
11:51 PM,59.0,56.8,93,30.68,10.0,Calm,Calm,-,N/A,,Overcast,0,2013-06-19 03:51:00